INMARSAT 5-F3

Last updated on Sun Jun 21 2026 00:03:06 GMT+0000 (Coordinated Universal Time)

1 40882U 15042A 26171.14240558 .00000045 00000+0 00000+0 0 9997 2 40882 0.0179 19.7886 0000186 35.7715 83.6787 1.00269689 39601
UTC large
Height (km)
Speed (km/s)
/
Latitude / Longitude
Inclination (degrees)
Orbital Period (minutes)
Azimuth
Elevation
Range (km)
Doppler Factor

Next 0 passes for location: London (51.5072 / 0.1276)

No passes found over London.
INMARSAT 5-F3